星链-11415 (STARLINK-11415)

导读

STARLINK-11415是美国SpaceX公司星链(Starlink)低轨互联网星座的卫星之一,于2025年1月13日发射升空。星链项目旨在构建覆盖全球的卫星互联网星座,为全球提供高速宽带网络接入服务。该卫星部署在近地轨道,延续星链星座组网布局,进一步拓展星座的全球覆盖能力,支撑星座全球通信服务的运行,推动SpaceX巨型低轨卫星互联网建设布局,目前已正常在轨运行。

基本信息
目录编号:
62592
目录名称:
STARLINK-11415
国际标识:
2025-008F
轨道中心:
EARTH
卫星名称:
星链-11415
卫星全名:
星链-11415 (STARLINK-11415)
卫星状态:
在轨 (已飞行517 天)
发射日期:
2025-01-13 UTC
国别 :
美国 (US)
星等 :
--
轨道信息
数据来源 国际轨道数据
星历时间: 2026-06-14T07:25:53+0800
19小时前
查看轨道信息
半长轴: 6734.478km
偏心率: 0.0002885
轨道倾角: 42.997°
近地点辐角 281.884°
升交点赤经 266.135°
平近点角 78.170°
近地点: 354.398km
远地点: 358.284km
周期: 91.668分钟
每日圈数: 15.70894
详细信息
固有亮度:
5
最大亮度:
2.5
卫星平台:
Starlink V1.0
覆盖范围:
全球
运营商:
太空探索技术公司
运营商所在国:
美国
制造商(研发单位):
太空探索技术公司
制造商所在国:
美国
使用方式:
暂无
卫星简介
Starlink 计划是 SpaceX 推出的全球卫星互联网项目,通过发射低轨道卫星,为全球尤其是偏远地区提供高速、低延迟的互联网服务。自 2019 年起,Starlink 已部署数千颗卫星,旨在缩小全球数字鸿沟,推动互联网普及。该项目还为军事、航空等行业提供通信支持,带来广泛经济效益。
2D轨道图
3D轨道图
轨道高度分析图
轨道倾角分析图
轨道综合分析图
查看轨道综合分析图